[[{"header":{"parameterUnit":"m.s-1","parameterCategory":1,"la1":30.2991,"la2":30.254,"lo1":-89.0895,"lo2":-89.0444,"dy":0.0017,"dx":0.0017,"nx":28,"ny":28,"refTime":"2024-03-06T03:00:00:Z","depth":0,"parameterNumber":2,"parameterNumberName":"U-component_of_WINDS"},"data":[0,0,0,0,0,0,0,0,0,0,0,0,0,0,0,0,0,0,0,0,0,0,0,0,0,0,0,0,0,0,0,0,0,0,0,0,0,0,0,0,0,0,0,0,0,0,0,0,0,0,0,0,0,0,0,0,0,0,-1.9812,-1.981,0,-1.9695,-1.9693,-1.9692,-1.9625,-1.9624,-1.9624,-1.9624,-1.9506,-1.9503,-1.95,0,0,0,0,0,0,0,0,0,0,0,0,0,-1.9982,-1.998,-1.9812,-1.981,-1.9809,-1.9695,-1.9693,-1.9692,-1.9625,-1.9624,-1.9624,-1.9624,-1.9507,-1.9504,-1.95,0,0,0,0,0,0,0,0,0,0,0,0,0,-1.9891,-1.9979,-1.9812,-1.9762,-1.9756,-1.9695,-1.9693,-1.9691,-1.9625,-1.9624,-1.9624,-1.9624,-1.9508,-1.9504,-1.95,-1.948,0,0,-1.9486,-1.9484,0,0,0,0,0,0,0,0,-1.9897,-1.9885,-1.9771,-1.9765,-1.9759,-1.9674,-1.971,-1.9621,-1.9625,-1.9675,-1.9624,-1.9624,-1.9562,-1.9554,-1.9532,-1.9475,-1.947,-1.9486,-1.9483,-1.9481,-1.948,0,0,0,0,0,0,0,-1.9903,-1.989,-1.9765,-1.9769,-1.9762,-1.9747,-1.9733,-1.9693,-1.9622,-1.967,-1.9665,-1.9652,-1.9559,-1.9537,-1.9529,-1.9468,-1.9486,-1.9482,-1.948,-1.9478,-1.9393,-1.9393,0,0,0,0,0,0,-1.9917,-1.9895,-1.9769,-1.9762,-1.9828,-1.9744,-1.9729,-1.9701,-1.9622,-1.961,-1.9653,-1.9649,-1.9544,-1.9534,-1.9525,-1.9499,-1.9481,-1.9477,-1.9475,-1.9392,-1.9393,-1.9393,0,0,0,0,0,0,-1.9921,-1.9906,-1.9774,-1.9827,-1.9809,-1.9741,-1.9711,-1.9699,-1.9677,-1.9609,-1.9596,-1.9642,-1.9544,-1.9531,-1.9493,-1.9494,-1.9475,-1.9471,-1.9392,-1.9392,-1.9393,-1.9445,0,0,0,0,0,0,-1.9926,-1.9908,-1.9898,-1.9827,-1.9807,-1.9742,-1.9711,-1.9697,-1.9669,-1.9664,-1.9596,-1.9584,-1.9542,-1.9499,-1.9488,-1.9487,-1.9468,-1.9391,-1.9392,-1.9393,-1.9443,-1.9448,-1.9451,0,0,0,0,0,-1.9932,-1.9917,-1.9898,-1.9883,-1.9793,-1.9742,-1.973,-1.9682,-1.967,-1.966,-1.9618,-1.9587,-1.9496,-1.9496,-1.9483,-1.9481,-1.9391,-1.9392,-1.9393,-1.9441,-1.9447,-1.9451,0,0,0,0,0,0,-1.9989,-1.9907,-1.9885,-1.9846,-1.9802,-1.9731,-1.9717,-1.9688,-1.9647,-1.9644,-1.9586,-1.9571,-1.9539,-1.9506,-1.9508,-1.946,-1.944,-1.9439,-1.9482,-1.9486,-1.949,-1.9499,-1.9464,0,0,0,0,0,-1.9998,-1.9962,-1.9892,-1.9865,-1.9844,-1.9785,-1.9761,-1.9728,-1.968,-1.9661,-1.9615,-1.957,-1.9532,-1.9507,-1.9468,-1.9439,-1.9425,-1.9432,-1.9436,-1.9439,-1.9438,-1.9423,-1.9426,-1.9396,-1.9396,-1.9396,0,0,-2.0014,-1.9965,-1.9945,-1.9876,-1.9837,-1.9804,-1.977,-1.9734,-1.9709,-1.9655,-1.9616,-1.9582,-1.9529,-1.9496,-1.9479,-1.9467,-1.9444,-1.944,-1.9444,-1.944,-1.9425,-1.9427,-1.943,-1.9396,-1.9396,-1.9396,0,0,-2.0026,-1.9985,-1.9959,-1.9922,-1.9865,-1.9826,-1.9821,-1.9755,-1.973,-1.969,-1.965,-1.9621,-1.9555,-1.9519,-1.9493,-1.9498,-1.9469,-1.9487,-1.9508,-1.9494,-1.9496,-1.9498,-1.9501,-1.9503,-1.9486,-1.9486,-1.9486,0,-2.0053,-1.9999,-1.9949,-1.9917,-1.9889,-1.984,-1.9815,-1.9782,-1.9715,-1.9698,-1.9686,-1.9605,-1.9566,-1.9525,-1.9527,-1.9506,-1.95,-1.9493,-1.95,-1.9501,-1.9502,-1.9505,-1.9506,-1.9489,-1.9489,-1.9488,-1.9488,0,-2.0037,-2.0001,-1.9987,-1.9925,-1.9895,-1.9867,-1.9814,-1.9791,-1.9762,-1.9726,-1.9688,-1.964,-1.9592,-1.958,-1.955,-1.9536,-1.9531,-1.9511,-1.949,-1.9509,-1.951,-1.9511,-1.9493,-1.9492,-1.9491,-1.949,0,0,-2.0078,-1.9992,-1.9987,-1.996,-1.9896,-1.9867,-1.9839,-1.9792,-1.9774,-1.9731,-1.9707,-1.9655,-1.9637,-1.9607,-1.9574,-1.9562,-1.9572,-1.9543,-1.9541,-1.9551,-1.9556,-1.9571,-1.9573,-1.9553,-1.9553,-1.9553,-1.9561,0,-2.0081,-2.0026,-1.9982,-1.9944,-1.9911,-1.9867,-1.9843,-1.9802,-1.9769,-1.9738,-1.9702,-1.9666,-1.9644,-1.9626,-1.9612,-1.9573,-1.9572,-1.9572,-1.9531,-1.953,-1.9545,-1.9573,-1.9589,-1.9598,-1.9561,-1.9561,-1.9561,0,-2.0076,-2.0036,-1.9995,-1.9938,-1.9922,-1.9901,-1.9856,-1.9827,-1.9781,-1.9758,-1.9728,-1.9694,-1.9665,-1.9649,-1.9609,-1.961,-1.9591,-1.957,-1.957,-1.9563,-1.9546,-1.9568,-1.9599,-1.9601,-1.9561,-1.9561,-1.9561,0,-2.0112,-2.0047,-2.0015,-1.9993,-1.9925,-1.9912,-1.9883,-1.9837,-1.9813,-1.9775,-1.9759,-1.9718,-1.9696,-1.9666,-1.9624,-1.9616,-1.959,-1.9569,-1.9571,-1.9572,-1.9566,-1.9566,-1.9595,-1.9555,-1.9555,-1.9555,-1.9555,0,-2.0119,-2.0096,-2.0031,-2.0011,-1.9985,-1.9937,-1.9913,-1.988,-1.9841,-1.9816,-1.9776,-1.9754,-1.9699,-1.9671,-1.9638,-1.9612,-1.9602,-1.9584,-1.9575,-1.9587,-1.9589,-1.9573,-1.9571,-1.9555,-1.9555,-1.9555,-1.9555,0,-2.0153,-2.0108,-2.007,-2.001,-1.9995,-1.9979,-1.9928,-1.9909,-1.9875,-1.9844,-1.9834,-1.9781,-1.9747,-1.9702,-1.9653,-1.9632,-1.9609,-1.9596,-1.9624,-1.9619,-1.9623,-1.9624,-1.9642,-1.9643,-1.9602,-1.9603,-1.9603,0,-2.016,-2.0141,-2.008,-2.0061,-2.0034,-2.0002,-1.9978,-1.9932,-1.9908,-1.9858,-1.9846,-1.9808,-1.9775,-1.9723,-1.9681,-1.9645,-1.963,-1.9639,-1.9624,-1.9638,-1.9631,-1.9633,-1.9632,-1.9643,-1.9643,-1.9644,-1.9644,0,-2.0178,-2.0158,-2.0124,-2.0084,-2.0057,-2.0023,-1.9987,-1.9974,-1.9921,-1.9897,-1.9862,-1.9837,-1.9788,-1.9752,-1.9711,-1.9684,-1.9656,-1.965,-1.9648,-1.966,-1.9677,-1.9669,-1.9634,-1.9649,-1.9649,-1.9648,-1.9648,-1.9648,-2.0198,-2.0181,-2.0137,-2.0102,-2.0071,-2.004,-2.0019,-1.9984,-1.9954,-1.991,-1.9886,-1.9852,-1.9811,-1.9753,-1.9728,-1.9702,-1.9691,-1.9689,-1.9688,-1.9688,-1.9692,-1.9683,-1.9694,-1.9694,-1.9694,-1.9694,-1.9694,0,-2.0215,-2.0185,-2.0154,-2.0106,-2.008,-2.0057,-2.0018,-1.9998,-1.9968,-1.9932,-1.9902,-1.9863,-1.983,-1.9787,-1.9751,-1.9739,-1.9726,-1.9731,-1.9731,-1.9726,-1.9704,-1.9709,-1.9743,-1.9743,-1.9743,-1.9743,-1.9743,-1.9743,-2.022,-2.0191,-2.0166,-2.0123,-2.0093,-2.0059,-2.0039,-2.0012,-1.9983,-1.9942,-1.9914,-1.9887,-1.9849,-1.9811,-1.978,-1.9769,-1.9758,-1.9767,-1.9752,-1.9732,-1.9727,-1.9723,-1.9728,-1.9765,-1.9765,-1.9777,-1.9777,-1.9777]},{"header":{"parameterUnit":"m.s-1","parameterCategory":1,"la1":30.2991,"la2":30.254,"lo1":-89.0895,"lo2":-89.0444,"dy":0.0017,"dx":0.0017,"nx":28,"ny":28,"refTime":"2024-03-06T03:00:00:Z","depth":0,"parameterNumber":3,"parameterNumberName":"V-component_of_WINDS"},"data":[0,0,0,0,0,0,0,0,0,0,0,0,0,0,0,0,0,0,0,0,0,0,0,0,0,0,0,0,0,0,0,0,0,0,0,0,0,0,0,0,0,0,0,0,0,0,0,0,0,0,0,0,0,0,0,0,0,0,1.6888,1.6888,0,1.6867,1.6867,1.6866,1.6923,1.6924,1.6926,1.6928,1.6901,1.6898,1.6896,0,0,0,0,0,0,0,0,0,0,0,0,0,1.6974,1.6972,1.6888,1.6888,1.6888,1.6867,1.6867,1.6866,1.6922,1.6924,1.6927,1.6929,1.6902,1.6899,1.6896,0,0,0,0,0,0,0,0,0,0,0,0,0,1.6943,1.6972,1.6888,1.6913,1.6915,1.6867,1.6867,1.6866,1.6922,1.6925,1.6927,1.693,1.6902,1.6899,1.6896,1.682,0,0,1.6885,1.6883,0,0,0,0,0,0,0,0,1.6945,1.694,1.691,1.6912,1.6914,1.69,1.6887,1.6851,1.6921,1.6919,1.6928,1.6931,1.6898,1.6895,1.6885,1.6819,1.6818,1.6884,1.6882,1.6881,1.688,0,0,0,0,0,0,0,1.6947,1.6941,1.688,1.6909,1.6912,1.6924,1.6923,1.688,1.6894,1.692,1.6924,1.6921,1.69,1.6888,1.6885,1.6817,1.6884,1.6881,1.6879,1.6878,1.6689,1.6687,0,0,0,0,0,0,1.6946,1.6942,1.688,1.6879,1.6936,1.6921,1.6919,1.6902,1.6895,1.6896,1.6918,1.6923,1.6893,1.6889,1.6884,1.6796,1.6881,1.6877,1.6875,1.6692,1.6689,1.6686,0,0,0,0,0,0,1.6948,1.694,1.6881,1.6912,1.6905,1.6916,1.6897,1.69,1.6889,1.6894,1.6896,1.6905,1.6895,1.6889,1.6836,1.6796,1.6876,1.6872,1.6696,1.6691,1.6687,1.6618,0,0,0,0,0,0,1.695,1.6941,1.6913,1.6911,1.6904,1.6835,1.6894,1.6898,1.6883,1.6889,1.6881,1.6882,1.6897,1.6841,1.6833,1.6792,1.687,1.6699,1.6694,1.6689,1.6624,1.6612,1.6602,0,0,0,0,0,1.6953,1.6893,1.6911,1.6903,1.6869,1.6832,1.6828,1.6847,1.688,1.6851,1.6855,1.6883,1.6802,1.6835,1.6826,1.6784,1.6702,1.6695,1.6689,1.6629,1.6614,1.6602,0,0,0,0,0,0,1.6887,1.6893,1.6913,1.6851,1.6841,1.6842,1.6806,1.6831,1.6809,1.6816,1.6839,1.6837,1.6779,1.6777,1.6814,1.6711,1.6757,1.6749,1.6715,1.6701,1.669,1.6691,1.6867,0,0,0,0,0,1.6866,1.6837,1.6843,1.6787,1.6781,1.6795,1.6779,1.6795,1.6785,1.678,1.678,1.6767,1.674,1.672,1.6695,1.6625,1.6623,1.6591,1.658,1.6571,1.6562,1.6525,1.6511,1.6665,1.6665,1.6665,0,0,1.6821,1.682,1.68,1.6774,1.6768,1.6736,1.6791,1.6754,1.673,1.6774,1.6725,1.6724,1.6712,1.665,1.6623,1.6646,1.652,1.6563,1.6555,1.6552,1.6517,1.6503,1.649,1.666,1.6661,1.6662,0,0,1.6722,1.6719,1.6673,1.6666,1.6658,1.6667,1.6656,1.6654,1.6656,1.6607,1.6639,1.6611,1.6562,1.6552,1.6541,1.6441,1.6465,1.6432,1.6372,1.6336,1.6324,1.6313,1.6277,1.6264,1.6424,1.6424,1.6423,0,1.6666,1.6621,1.6645,1.6607,1.6595,1.6636,1.6588,1.658,1.6563,1.6553,1.6579,1.652,1.6515,1.6451,1.6427,1.6417,1.6404,1.6432,1.6324,1.6314,1.6304,1.6269,1.6256,1.6419,1.642,1.642,1.6421,0,1.6552,1.6521,1.6484,1.6468,1.6452,1.6409,1.6426,1.6407,1.6425,1.6431,1.6381,1.6376,1.6351,1.6337,1.6353,1.6276,1.6291,1.632,1.6367,1.6285,1.6253,1.624,1.6414,1.6415,1.6416,1.6417,0,0,1.6409,1.641,1.6396,1.639,1.6384,1.6359,1.6319,1.6296,1.6278,1.6265,1.6231,1.619,1.6218,1.6205,1.622,1.6188,1.6109,1.6222,1.6222,1.62,1.6023,1.6,1.5985,1.6126,1.6124,1.6122,1.6024,0,1.6311,1.6244,1.6265,1.6196,1.6167,1.6206,1.6171,1.6163,1.6168,1.6143,1.6149,1.6119,1.6158,1.6151,1.6121,1.6125,1.6073,1.6132,1.6093,1.6091,1.6094,1.5968,1.5943,1.5851,1.6012,1.601,1.6008,0,1.6188,1.6172,1.6101,1.6101,1.609,1.6058,1.6039,1.6015,1.6007,1.6013,1.6,1.6022,1.5981,1.603,1.5973,1.6013,1.5998,1.5998,1.5995,1.5991,1.6044,1.5959,1.5822,1.5808,1.5989,1.599,1.5992,0,1.609,1.6051,1.6003,1.5997,1.5996,1.5973,1.5971,1.5966,1.5951,1.5935,1.5925,1.5903,1.5891,1.5873,1.5889,1.5922,1.583,1.5879,1.5832,1.5832,1.581,1.581,1.5667,1.5802,1.5802,1.5802,1.5803,0,1.5978,1.5932,1.596,1.593,1.588,1.5906,1.5855,1.5858,1.5853,1.5824,1.5856,1.5828,1.5851,1.5825,1.5837,1.5788,1.5782,1.5785,1.5789,1.5782,1.5781,1.5771,1.5777,1.5799,1.58,1.58,1.5801,0,1.5859,1.5876,1.5827,1.5831,1.5831,1.5794,1.5798,1.577,1.5779,1.5741,1.5734,1.5747,1.5718,1.5732,1.5701,1.5709,1.5646,1.5659,1.5649,1.5652,1.5605,1.5608,1.5449,1.5429,1.5577,1.5576,1.5575,0,1.5786,1.5752,1.5754,1.5738,1.5735,1.5708,1.5694,1.5718,1.5701,1.5691,1.5664,1.5638,1.5618,1.5569,1.5575,1.5551,1.5563,1.5509,1.5559,1.5553,1.5561,1.5562,1.5559,1.5498,1.5496,1.5495,1.5493,0,1.5654,1.5664,1.5644,1.5626,1.5609,1.5595,1.5585,1.5569,1.5593,1.5573,1.5544,1.5529,1.5499,1.5472,1.5452,1.5449,1.5474,1.5478,1.5466,1.5457,1.5453,1.5454,1.562,1.5481,1.5482,1.5483,1.5484,1.5484,1.5555,1.5527,1.5524,1.55,1.5496,1.5485,1.546,1.5467,1.5444,1.5422,1.5438,1.5404,1.5397,1.5373,1.5367,1.534,1.5361,1.5344,1.5339,1.5334,1.5327,1.5459,1.5336,1.5337,1.5337,1.5338,1.5338,0,1.5424,1.5425,1.5403,1.5388,1.5369,1.5398,1.5388,1.5369,1.534,1.5333,1.5313,1.5281,1.5255,1.526,1.5237,1.5214,1.5225,1.5207,1.5208,1.5207,1.531,1.5323,1.5199,1.5199,1.5199,1.5199,1.5199,1.5199,1.5353,1.5308,1.5318,1.5271,1.5272,1.524,1.5232,1.5223,1.5217,1.518,1.516,1.5164,1.5161,1.5139,1.5116,1.5118,1.5108,1.5085,1.5091,1.5186,1.52,1.5213,1.5225,1.5083,1.5083,1.4991,1.499,1.4989]}]]